Flight Track Log - Related Links

Times and Time Zones

All times are in EDT time to prevent confusion due to time zone crossing. See the CHH7007 flight status page for this flight to view local times or setup timezone preferences in your user account.

Time Position Orientation Groundspeed Altitude Reporting Facility
EDT Latitude Longitude Course Direction KTS MPH feet Rate Location/Type
01:32AM 22.4330 111.7720 46° Northeast 401 461 25,000  Level FlightAware
01:33AM 22.4860 111.8310 46° Northeast 403 464 24,300 -1,012 Descending FlightAware
01:34AM 22.5410 111.8920 46° Northeast 401 461 23,600 -975 Descending FlightAware
01:34AM 22.5890 111.9460 46° Northeast 397 457 23,000 -977 Descending FlightAware
01:35AM 22.6490 112.0130 46° Northeast 390 449 22,200 -988 Descending FlightAware
01:36AM 22.6930 112.0630 46° Northeast 388 447 21,600 -951 Descending FlightAware
01:36AM 22.7470 112.1230 46° Northeast 389 448 20,900 -1,014 Descending FlightAware
01:37AM 22.7850 112.1660 46° Northeast 388 447 20,400 -1,029 Descending FlightAware
01:38AM 22.8380 112.2250 46° Northeast 385 443 19,700 -977 Descending FlightAware
01:38AM 22.8910 112.2850 46° Northeast 381 438 19,000 -1,214 Descending FlightAware
01:39AM 22.9430 112.3430 46° Northeast 377 434 18,000 -1,857 Descending FlightAware
01:40AM 22.9920 112.3980 46° Northeast 384 442 16,400 -2,195 Descending FlightAware
01:40AM 23.0430 112.4560 46° Northeast 384 442 15,000 -2,100 Descending FlightAware
01:41AM 23.0640 112.4860 53° Northeast 376 433 14,300 -1,607 Descending FlightAware
01:41AM 23.0710 112.5510 83° East 359 413 13,500 -1,171 Descending FlightAware
01:42AM 23.0870 112.6310 78° East 344 396 12,700 -1,067 Descending FlightAware
01:43AM 23.1000 112.7060 79° East 340 391 11,900 -963 Descending FlightAware
01:43AM 23.1100 112.7660 80° East 336 387 11,400 -795 Descending FlightAware
01:44AM 23.1190 112.8420 83° East 328 377 10,800 -663 Descending FlightAware
01:47AM 23.3632 113.2498 57° Northeast  Level Estimated
01:47AM 23.1660 113.0860 57° Northeast 317 365 9,200  Level FlightAware
01:47AM 23.1870 113.1240 59° Northeast 328 377 9,200  Level FlightAware
01:47AM 23.2030 113.1330 27° Northeast 331 381 9,200  Level FlightAware
01:48AM 23.2460 113.1440 13° North 329 379 9,200  Level FlightAware
01:48AM 23.2900 113.1560 14° North 329 379 9,200 -203 Level FlightAware
01:49AM 23.3340 113.1670 13° North 326 375 9,000 -724 Descending FlightAware
01:49AM 23.3740 113.1780 14° North 320 368 8,500 -882 Descending FlightAware
01:49AM 23.3840 113.1800 10° North 314 361 8,500 -706 Level FlightAware
01:50AM 23.4220 113.1900 14° North 302 348 8,100 -300 Descending FlightAware
01:50AM 23.4640 113.1990 11° North 278 320 8,200  Climbing FlightAware
01:51AM 23.5190 113.2100 10° North 254 292 8,100 -254 Descending FlightAware
01:52AM 23.5460 113.2160 12° North 237 273 7,900 -750 Descending FlightAware
01:52AM 23.5800 113.2230 11° North 227 261 7,400 -947 Descending FlightAware
01:53AM 23.6060 113.2290 12° North 220 253 7,000 -889 Descending FlightAware
01:53AM 23.6340 113.2350 11° North 218 251 6,600 -1,038 Descending FlightAware
01:53AM 23.6590 113.2400 10° North 216 249 6,100 -1,143 Descending FlightAware
01:54AM 23.6750 113.2470 22° Northeast 214 246 5,800 -1,200 Descending FlightAware
01:54AM 23.6820 113.2570 53° Northeast 211 243 5,500 -1,043 Descending FlightAware
01:54AM 23.6830 113.2670 84° East 204 235 5,400 -857 Descending FlightAware
01:55AM 23.6770 113.2990 102° East 196 226 4,900 -814 Descending FlightAware
01:55AM 23.6700 113.3230 108° East 188 216 4,600 -818 Descending FlightAware
01:55AM 23.6590 113.3310 146° Southeast 170 196 4,300 -857 Descending FlightAware
01:56AM 23.6510 113.3340 161° South 170 196 4,200 -682 Descending FlightAware
01:56AM 23.6260 113.3420 164° South 175 201 3,800 -824 Descending FlightAware
01:56AM 23.6100 113.3460 167° South 180 207 3,500 -714 Descending FlightAware
01:57AM 23.5920 113.3420 192° South 175 201 3,300 -255 Descending FlightAware
01:57AM 23.5730 113.3360 196° South 163 188 3,300 -333 Level FlightAware
01:58AM 23.5520 113.3310 192° South 156 180 3,000 -714 Descending FlightAware
01:58AM 23.5450 113.3290 195° South 152 175 2,800 -714 Descending FlightAware
01:58AM 23.5240 113.3230 195° South 145 167 2,500 -700 Descending FlightAware
01:59AM 23.5040 113.3180 193° South 147 169 2,100 -800 Descending FlightAware
02:02AM 23.3924 113.2988 189° South  Level Estimated
02:03AM 23.3924 113.2988 223° Southwest  Level Estimated
02:04AM 23.3924 113.2988 223° Southwest  Level Estimated
02:05AM 23.3924 113.2988 223° Southwest  Level Estimated
02:06AM 23.3924 113.2988 223° Southwest  Level Estimated
02:07AM 23.3924 113.2988 223° Southwest  Level Estimated
02:08AM 23.3924 113.2988 223° Southwest  Level Estimated
02:09AM 23.3924 113.2988 223° Southwest  Level Estimated
02:10AM 23.3924 113.2988 223° Southwest  Level Estimated
02:11AM 23.3924 113.2988 223° Southwest  Level Estimated

Login

Don't have an account? Register now (free) for customized features, flight alerts, and more!